Retour au catalogue

STARLINK-32334

ActifCommunicationsVLEO
NORAD 62023·PAYLOAD·🇺🇸 United States

Lancé Nov 18, 2024 depuis Vandenberg Space Force Base

Loading…

Prochains Passages (prochaines 24 heures)

TLE

FraisSource: CelesTrak SupGP

Époque: Sep 15, 2026, 03:08 UTC

1 62023C 24213R   26258.13104167  .00063993  00000+0  18904-2 0  2582
2 62023  53.1610   6.8932 0001157  91.4568  43.8929 15.34363152    15

Suivez STARLINK-32334 en temps réel avec AllMySat

Download on the App Store